Location: Newark
(21.1200°N, 73.4000°E)
Time: 18:42:00
(UTC+00:00)

Explorer 11/Cluster Stage 4 - Pass Details

Date: 20 January 2020
Orbit: 467 x 1259 km, 28.8° (Epoch: 26 February)

Event Time Altitude Azimuth Distance (km) Brightness Sun altitude
Rises 14:48:22 0° 292° (WNW) 3,435 10.7 -27.6°
Reaches altitude 10° 14:51:18 10° 298° (WNW) 2,352 9.6 -28.2°
Enters shadow 14:54:55 34° 325° (NW) 1,159 7.5 -29.1°
Maximum altitude 14:56:31 44° 10° (N) 917 - -29.4°
Drops below altitude 10° 15:00:44 10° 84° (E) 1,898 - -30.4°
Sets 15:02:53 0° 91° (E) 2,705 - -30.9°
